Hilo, HI

5:07 PM HST on January 17, 2018 (GMT -1000)
Hilo International

Weather History for PHTO - November, 2011

Change the Weather History Date:

Saturday, November 26, 2011

  Actual Average Record
Temperature  
Mean Temperature 75 °F 73 °F  
Max Temperature 80 °F 80 °F 86 °F (1964)
Min Temperature 69 °F 67 °F 62 °F (1958)
Degree Days  
Heating Degree Days 0 0  
Month to date heating degree days 0 0  
Since 1 July heating degree days 0 0  
Cooling Degree Days 10 8  
Month to date cooling degree days 222 239  
Year to date cooling degree days 3044 2974  
Growing Degree Days 24 (Base 50)    
Moisture  
Dew Point 65 °F    
Average Humidity 74    
Maximum Humidity 90    
Minimum Humidity 58    
Precipitation  
Precipitation 0.19 in 0.50 in 4.03 in (1967)
Month to date precipitation 17.36 13.60  
Year to date precipitation 77.29 113.25  
Snow  
Snow 0.00 in - - ()
Month to date snowfall 0.0  
Since 1 July snowfall 0.0  
Since 1 September snowfall 0.0  
Snow Depth 0.00 in    
Sea Level Pressure  
Sea Level Pressure 30.13 in    
Wind  
Wind Speed 9 mph (NNW)    
Max Wind Speed 20 mph    
Max Gust Speed 25 mph    
Visibility 9 miles    
Events Rain    
T = Trace of Precipitation, MM = Missing Value Source: NWS Daily Summary

Daily Weather History Graph

Daily Weather History Graph

Search for Another Location

Airport or City:

Trip Planner

Search our weather history database for the weather conditions in past years. The results will help you decide how hot, cold, wet, or windy it might be!

Date:

Astronomy

Nov. 26, 2011 Rise Set
Actual Time 6:35 AM HST 5:39 PM HST
Civil Twilight 6:11 AM HST 6:03 PM HST
Nautical Twilight 5:44 AM HST 6:30 PM HST
Astronomical Twilight 5:17 AM HST 6:56 PM HST
Moon 8:09 AM HST (11/26) 7:28 PM HST (11/26)
Length of Visible Light 11h 51m
Length of Day
11h 04m
Waxing Crescent, 4% of the Moon is Illuminated
Nov 26
Waxing Crescent
Dec 1
First Quarter
Dec 10
Full
Dec 17
Last Quarter
Dec 24
New

Hourly Weather History & Observations

Time (HST) Temp. Dew Point Humidity Pressure Visibility Wind Dir Wind Speed Gust Speed Precip Events Conditions
12:18 AM 71.6 °F 66.2 °F 83% 30.11 in 8.0 mi NW 6.9 mph - 0.00 in Rain Light Rain
12:41 AM 71.6 °F 66.2 °F 83% 30.11 in 9.0 mi NW 11.5 mph - 0.00 in Rain Light Rain
12:53 AM 71.1 °F 66.0 °F 84% 30.10 in 10.0 mi WNW 6.9 mph - 0.00 in   Mostly Cloudy
1:53 AM 70.0 °F 64.9 °F 84% 30.09 in 10.0 mi Calm Calm - N/A   Mostly Cloudy
2:53 AM 71.1 °F 64.0 °F 78% 30.07 in 10.0 mi NW 6.9 mph - N/A   Mostly Cloudy
3:53 AM 71.1 °F 64.0 °F 78% 30.06 in 9.0 mi NNW 5.8 mph - 0.00 in Rain Light Rain
4:07 AM 71.6 °F 64.4 °F 78% 30.07 in 10.0 mi NNW 6.9 mph - 0.00 in   Overcast
4:38 AM 69.8 °F 64.4 °F 83% 30.07 in 10.0 mi NW 9.2 mph - 0.00 in   Mostly Cloudy
4:53 AM 70.0 °F 64.9 °F 84% 30.08 in 10.0 mi WNW 6.9 mph - 0.00 in   Overcast
5:43 AM 69.8 °F 64.4 °F 83% 30.09 in 10.0 mi Variable 3.5 mph - 0.02 in Rain Light Rain
5:50 AM 69.8 °F 64.4 °F 83% 30.09 in 10.0 mi NW 4.6 mph - 0.02 in   Overcast
5:53 AM 70.0 °F 64.0 °F 81% 30.09 in 10.0 mi NW 5.8 mph - 0.02 in   Overcast
6:53 AM 72.0 °F 63.0 °F 73% 30.10 in 10.0 mi NNW 13.8 mph - 0.00 in Rain Light Rain
7:53 AM 71.1 °F 63.0 °F 75% 30.12 in 10.0 mi NW 5.8 mph - 0.00 in Rain Light Rain
8:25 AM 71.6 °F 66.2 °F 83% 30.14 in 8.0 mi NNW 8.1 mph - 0.00 in Rain Light Rain
8:48 AM 71.6 °F 66.2 °F 83% 30.14 in 8.0 mi NNW 9.2 mph - 0.02 in   Overcast
8:53 AM 71.1 °F 66.9 °F 87% 30.14 in 9.0 mi NW 8.1 mph - 0.02 in   Overcast
9:53 AM 73.0 °F 66.9 °F 81% 30.14 in 10.0 mi NW 8.1 mph - N/A   Overcast
10:53 AM 75.9 °F 66.9 °F 74% 30.13 in 10.0 mi North 10.4 mph - N/A   Mostly Cloudy
11:09 AM 77.0 °F 64.4 °F 65% 30.13 in 10.0 mi NNE 10.4 mph - N/A   Scattered Clouds
11:53 AM 78.1 °F 66.0 °F 66% 30.12 in 10.0 mi North 11.5 mph - N/A   Mostly Cloudy
12:53 PM 79.0 °F 64.9 °F 62% 30.09 in 10.0 mi North 11.5 mph - N/A   Mostly Cloudy
1:53 PM 78.1 °F 64.0 °F 62% 30.08 in 10.0 mi North 12.7 mph - N/A   Mostly Cloudy
2:53 PM 78.1 °F 63.0 °F 60% 30.08 in 10.0 mi North 10.4 mph - N/A   Mostly Cloudy
3:53 PM 77.0 °F 63.0 °F 62% 30.09 in 10.0 mi North 9.2 mph - N/A   Mostly Cloudy
5:53 PM 73.0 °F 63.0 °F 71% 30.12 in 10.0 mi NW 5.8 mph - N/A   Scattered Clouds
6:53 PM 73.0 °F 63.0 °F 71% 30.14 in 10.0 mi NNW 8.1 mph - N/A   Scattered Clouds
7:53 PM 73.9 °F 64.0 °F 71% 30.17 in 10.0 mi NNW 9.2 mph - 0.00 in   Overcast
8:32 PM 71.6 °F 66.2 °F 83% 30.19 in 10.0 mi NNW 13.8 mph - 0.03 in Rain Light Rain
9:53 PM 71.1 °F 66.9 °F 87% 30.20 in 10.0 mi North 10.4 mph - 0.03 in   Overcast
10:03 PM 71.6 °F 66.2 °F 83% 30.21 in 10.0 mi NNE 6.9 mph - N/A   Overcast
10:12 PM 69.8 °F 66.2 °F 88% 30.21 in 4.0 mi Variable 4.6 mph - 0.00 in Rain Light Rain
10:25 PM 69.8 °F 66.2 °F 88% 30.21 in 2.5 mi Calm Calm - 0.03 in Rain Heavy Rain
10:53 PM 70.0 °F 66.9 °F 90% 30.19 in 9.0 mi NW 8.1 mph - 0.10 in Rain Light Rain
11:08 PM 69.8 °F 66.2 °F 88% 30.20 in 10.0 mi NNW 9.2 mph - 0.01 in Rain Light Rain
11:15 PM 69.8 °F 66.2 °F 88% 30.20 in 10.0 mi North 8.1 mph - 0.01 in   Overcast
11:53 PM 71.1 °F 66.0 °F 84% 30.18 in 6.0 mi NNE 11.5 mph 23.0 mph 0.01 in Rain Rain